User: anonymous   Login
Location: Bottom School (historical)
(37.9078°N, 89.3593°W)
Time: 22:48:13
(UTC+00:00)
Language:

STRAND 1 - Orbit

View from above orbital plane
View from above orbital plane
View from above satellite
View from above satellite

Ground track
Ground track

The orbit data is extracted from the following two-line orbital elements,

1 39090U 13009E   24105.03546469  .00000514  00000-0  19165-3 0  9998
2 39090  98.3833 295.0880 0010092  85.5038 274.7301 14.35970699583058
Epoch (UTC): 14 April 2024 00:51:04
Eccentricity: 0.0010092
inclination: 98.3833°
perigee height: 764 km
apogee height: 779 km
right ascension of ascending node: 295.0880°
argument of perigee: 85.5038°
revolutions per day: 14.35970699
mean anomaly at epoch: 274.7301°
orbit number at epoch: 58305

The dashed part of the orbit path shows where the satellite is in the earth's shadow,  

DLR